Location: Derby
(52.9213°N, 1.4761°W)
Time: 16:16:32
(UTC+01:00)

Vanguard 1 - Pass Details

Date: 22 May 2025
Orbit: 649 x 3822 km, 34.3° (Epoch: 14 June)

Event Time Altitude Azimuth Distance (km) Brightness Sun altitude
Rises 21:22:49 0° 260° (W) 6,634 14.9 -2.5°
Reaches altitude 10° 21:28:55 10° 249° (WSW) 5,018 14.1 -3.2°
Maximum altitude 21:38:11 23° 204° (SSW) 3,031 12.4 -4.2°
Drops below altitude 10° 21:44:23 10° 155° (SSE) 3,216 12.1 -4.9°
Enters shadow 21:45:50 - 147° (SSE) 3,500 12.2 -5.1°
Sets 21:47:16 0° 140° (SE) 3,841 - -5.2°
